TimeEST,TemperatureF,Dew PointF,Humidity,Sea Level PressureIn,VisibilityMPH,Wind Direction,Wind SpeedMPH,Gust SpeedMPH,PrecipitationIn,Events,Conditions,WindDirDegrees,DateUTC
12:05 AM,21.2,19.4,93,29.96,1.8,NW,4.6,-,0.00,Snow,Light Snow,320,2013-03-04 05:05:00
12:13 AM,21.2,19.4,93,29.97,3.0,NW,6.9,-,0.00,Snow,Light Snow,310,2013-03-04 05:13:00
12:23 AM,21.2,19.4,93,29.97,6.0,NW,8.1,-,0.00,Snow,Light Snow,320,2013-03-04 05:23:00
12:41 AM,21.2,15.8,80,29.97,9.0,WNW,5.8,-,0.00,,Overcast,290,2013-03-04 05:41:00
12:53 AM,21.9,14.0,72,30.03,10.0,West,8.1,-,0.00,,Overcast,270,2013-03-04 05:53:00
1:53 AM,21.9,16.0,78,30.04,10.0,West,5.8,-,N/A,,Overcast,270,2013-03-04 06:53:00
2:53 AM,21.0,16.0,81,30.05,5.0,West,8.1,-,0.00,Snow,Light Snow,280,2013-03-04 07:53:00
3:46 AM,21.2,15.8,80,29.99,6.0,West,8.1,17.3,0.00,Snow,Light Snow,280,2013-03-04 08:46:00
3:53 AM,21.2,15.8,80,29.99,6.0,West,8.1,-,N/A,Snow,Light Snow,280,2013-03-04 08:53:00
4:23 AM,21.2,15.8,80,30.00,2.0,WNW,9.2,-,0.00,Snow,Light Snow,290,2013-03-04 09:23:00
4:53 AM,21.0,16.0,81,30.07,2.0,NW,9.2,17.3,0.00,Snow,Light Snow,310,2013-03-04 09:53:00
4:56 AM,21.2,15.8,80,30.01,4.0,NW,10.4,17.3,0.00,Snow,Light Snow,310,2013-03-04 09:56:00
5:49 AM,21.2,17.6,86,30.03,1.8,NW,6.9,-,0.00,Snow,Light Snow,310,2013-03-04 10:49:00
5:50 AM,21.0,17.1,85,30.09,1.8,WNW,8.1,-,0.00,Snow,Light Snow,300,2013-03-04 10:50:00
6:04 AM,19.4,17.6,93,30.03,3.0,Variable,5.8,-,0.00,Snow,Light Snow,0,2013-03-04 11:04:00
6:15 AM,19.4,15.8,86,30.03,10.0,WNW,4.6,-,0.00,,Overcast,290,2013-03-04 11:15:00
6:53 AM,19.9,16.0,85,30.11,10.0,WSW,5.8,-,0.00,,Unknown,250,2013-03-04 11:53:00
7:53 AM,21.0,15.1,78,30.13,10.0,West,8.1,-,N/A,,Overcast,260,2013-03-04 12:53:00
8:53 AM,23.0,15.1,72,30.14,6.0,West,5.8,-,0.00,Snow,Light Snow,280,2013-03-04 13:53:00
9:53 AM,24.1,15.1,69,30.14,10.0,West,13.8,19.6,0.00,,Overcast,280,2013-03-04 14:53:00
10:53 AM,26.1,15.1,63,30.14,10.0,WNW,8.1,20.7,N/A,,Overcast,290,2013-03-04 15:53:00
11:53 AM,28.0,15.1,58,30.12,10.0,WNW,9.2,18.4,0.01,,Mostly Cloudy,290,2013-03-04 16:53:00
12:53 PM,30.9,17.1,57,30.10,10.0,Variable,6.9,21.9,N/A,,Mostly Cloudy,0,2013-03-04 17:53:00
1:53 PM,33.1,16.0,50,30.08,10.0,West,11.5,21.9,N/A,,Clear,270,2013-03-04 18:53:00
2:53 PM,34.0,17.1,50,30.07,10.0,Variable,6.9,19.6,N/A,,Clear,0,2013-03-04 19:53:00
3:53 PM,36.0,16.0,44,30.06,10.0,West,8.1,17.3,0.01,,Clear,260,2013-03-04 20:53:00
4:53 PM,36.0,16.0,44,30.06,10.0,NW,6.9,-,N/A,,Clear,310,2013-03-04 21:53:00
5:53 PM,34.0,17.1,50,30.08,10.0,WNW,5.8,-,N/A,,Clear,300,2013-03-04 22:53:00
6:53 PM,33.1,17.1,52,30.09,10.0,WNW,4.6,-,N/A,,Clear,300,2013-03-04 23:53:00
7:53 PM,32.0,17.1,54,30.09,10.0,NW,5.8,-,N/A,,Clear,320,2013-03-05 00:53:00
8:53 PM,30.0,18.0,61,30.09,10.0,NNW,4.6,-,N/A,,Clear,330,2013-03-05 01:53:00
9:53 PM,30.0,18.0,61,30.10,10.0,NW,3.5,-,N/A,,Clear,320,2013-03-05 02:53:00
10:53 PM,30.0,18.0,61,30.09,10.0,NW,3.5,-,N/A,,Clear,320,2013-03-05 03:53:00
11:53 PM,28.9,18.0,64,30.10,10.0,NNW,3.5,-,N/A,,Clear,340,2013-03-05 04:53:00